GFSNGP_prec_precacc_174.txt.gz
Total_Precipitation_Accumulation
0.05 0.02 0.02 0.04 0.04 0.02 0.05 0.13 0.31 0.16 0.21 0.32 0.33 0.44 0.62 0.39 0.45 0.31 0.67 0.81 0.61 0.64 0.59 0.58 0.65 0.68 0.76 0.66 0.65 0.72 0.68 0.69 0.59 0.72 1.12 1.31 1.61 1.60 1.34 1.07 0.97 0.94 0.85 0.80
0.27 0.03 0.01 0.02 0.02 0.01 0.02 0.04 0.05 0.06 0.09 0.04 0.04 0.10 0.09 0.10 0.11 0.21 0.37 0.28 0.29 0.22 0.23 0.27 0.33 0.39 0.52 0.61 0.53 0.49 0.50 0.46 0.60 0.75 0.67 0.74 0.71 0.63 0.67 0.82 0.87 0.76 0.59 0.54
0.42 0.04 0.13 0.35 0.08 0.03 0.15 0.24 0.18 0.15 0.12 0.02 0.04 0.08 0.15 0.13 0.10 0.12 0.12 0.07 0.15 0.21 0.17 0.27 0.29 0.31 0.44 0.57 0.56 0.41 0.35 0.35 0.38 0.39 0.39 0.33 0.26 0.28 0.33 0.38 0.44 0.58 0.70 0.56
0.63 0.35 0.76 0.26 0.04 0.04 0.20 0.14 0.07 0.10 0.06 0.04 0.04 0.17 0.14 0.07 0.05 0.08 0.06 0.07 0.06 0.09 0.06 0.12 0.26 0.44 0.51 0.54 0.60 0.56 0.37 0.26 0.18 0.15 0.14 0.17 0.27 0.34 0.35 0.33 0.26 0.25 0.36 0.75
0.84 0.56 0.28 0.08 0.09 0.13 0.18 0.32 0.21 0.17 0.11 0.06 0.05 0.19 0.31 0.11 0.08 0.09 0.06 0.05 0.01 0.01 0.01 0.02 0.10 0.37 0.75 0.87 0.66 0.62 0.46 0.34 0.20 0.15 0.16 0.26 0.40 0.47 0.39 0.35 0.42 0.35 0.34 0.39
0.91 0.74 0.34 0.21 0.16 0.07 0.16 0.57 0.71 0.40 0.34 0.30 0.19 0.37 0.44 0.16 0.11 0.07 0.03 0.00 0.00 0.00 0.00 0.02 0.08 0.23 0.39 0.74 0.85 0.60 0.54 0.41 0.39 0.30 0.28 0.36 0.35 0.28 0.28 0.38 0.39 0.52 0.61 0.43
0.85 1.21 0.55 0.17 0.07 0.10 0.53 1.14 0.87 0.80 1.00 0.85 0.90 1.03 0.63 0.37 0.15 0.04 0.00 0.00 0.00 0.00 0.00 0.00 0.05 0.18 0.47 0.69 1.06 1.04 0.70 0.62 0.48 0.38 0.38 0.32 0.27 0.27 0.33 0.38 0.45 0.43 0.43 0.51
1.23 1.39 0.81 0.21 0.40 0.86 0.97 0.56 0.74 1.25 1.47 1.25 1.08 0.79 0.45 0.14 0.06 0.02 0.00 0.00 0.00 0.00 0.00 0.01 0.03 0.06 0.20 0.53 1.15 1.59 1.27 0.84 0.78 0.64 0.39 0.31 0.26 0.25 0.31 0.40 0.45 0.45 0.41 0.36
0.98 0.82 0.50 0.36 0.61 0.77 0.67 0.73 0.85 0.76 0.79 0.55 0.44 0.20 0.07 0.04 0.01 0.00 0.00 0.00 0.00 0.01 0.02 0.02 0.01 0.02 0.08 0.16 0.35 1.17 1.83 1.81 1.36 0.89 0.75 0.69 0.66 0.61 0.53 0.49 0.47 0.51 0.53 0.53
1.07 0.65 0.37 0.54 0.41 0.53 0.79 0.72 0.44 0.42 0.41 0.38 0.26 0.16 0.11 0.04 0.03 0.01 0.01 0.01 0.02 0.03 0.02 0.01 0.01 0.02 0.05 0.07 0.16 0.42 0.92 1.50 1.87 1.89 1.14 0.99 1.14 1.14 1.29 1.28 1.02 0.99 1.07 1.09
1.40 1.50 0.95 0.61 0.57 0.56 0.55 0.58 0.59 0.34 0.24 0.27 0.36 0.31 0.27 0.23 0.09 0.03 0.05 0.06 0.05 0.07 0.06 0.03 0.04 0.04 0.06 0.13 0.19 0.26 0.57 0.98 1.28 1.96 1.93 1.11 1.00 1.22 1.19 1.48 1.60 1.35 1.21 1.26
1.29 1.34 1.60 1.16 1.29 0.99 0.72 0.41 0.30 0.17 0.23 0.17 0.09 0.10 0.15 0.20 0.30 0.31 0.23 0.19 0.18 0.14 0.09 0.10 0.11 0.13 0.14 0.16 0.24 0.31 0.51 0.91 1.21 1.48 2.05 2.05 1.46 1.66 2.00 2.12 2.07 2.17 2.22 1.98
0.50 0.61 0.89 1.08 0.78 0.40 0.42 0.48 0.27 0.10 0.08 0.02 0.02 0.05 0.15 0.32 0.42 0.44 0.41 0.35 0.31 0.34 0.32 0.20 0.15 0.18 0.21 0.21 0.24 0.33 0.46 0.59 0.94 1.34 1.74 1.95 2.05 1.83 1.91 2.07 1.99 1.95 1.95 1.78
0.12 0.19 0.31 0.27 0.27 0.19 0.18 0.26 0.20 0.12 0.07 0.06 0.06 0.05 0.11 0.31 0.84 1.23 1.15 0.81 0.58 0.45 0.45 0.52 0.55 0.68 0.76 0.70 0.67 0.71 0.87 1.15 1.20 1.36 1.78 2.09 2.21 2.16 2.05 1.82 1.66 1.88 1.93 1.91
0.02 0.06 0.16 0.10 0.07 0.10 0.07 0.08 0.05 0.07 0.12 0.15 0.09 0.11 0.24 0.42 0.60 0.87 1.36 1.48 1.41 1.32 1.37 1.28 1.25 1.66 1.73 1.61 1.57 1.58 1.42 1.45 1.50 1.65 1.68 1.75 1.86 1.88 1.78 1.73 1.70 1.73 1.66 1.47
0.01 0.01 0.03 0.05 0.06 0.08 0.06 0.06 0.08 0.08 0.03 0.02 0.09 0.21 0.18 0.31 0.39 0.48 0.75 1.00 1.15 1.51 1.82 1.85 1.88 1.92 1.64 1.49 1.25 1.23 1.22 1.08 0.92 0.95 1.17 1.32 1.32 1.38 1.52 1.55 1.57 1.56 1.54 1.61
0.01 0.03 0.05 0.06 0.09 0.09 0.07 0.05 0.03 0.03 0.03 0.05 0.08 0.10 0.09 0.16 0.30 0.62 0.95 1.05 1.18 1.33 1.37 1.26 1.28 1.05 0.84 0.81 0.72 0.69 0.72 0.71 0.65 0.65 0.70 0.78 0.95 1.08 1.17 1.18 1.22 1.22 1.31 1.38
0.01 0.03 0.07 0.12 0.07 0.01 0.01 0.01 0.03 0.05 0.08 0.12 0.24 0.38 0.43 0.50 0.74 1.09 1.41 1.37 0.94 0.84 0.91 0.87 0.70 0.53 0.47 0.50 0.44 0.41 0.42 0.43 0.49 0.58 0.60 0.63 0.71 0.76 0.75 0.77 0.84 0.88 0.97 0.97
0.10 0.10 0.06 0.02 0.03 0.03 0.03 0.05 0.09 0.15 0.23 0.30 0.41 0.68 0.87 0.94 0.91 0.87 0.87 0.82 0.84 0.70 0.76 0.50 0.38 0.29 0.26 0.29 0.25 0.31 0.34 0.38 0.39 0.40 0.47 0.50 0.52 0.63 0.69 0.66 0.66 0.72 0.74 0.78
0.04 0.04 0.04 0.05 0.06 0.08 0.12 0.20 0.26 0.36 0.47 0.44 0.49 0.60 0.60 0.67 0.59 0.60 0.58 0.54 0.50 0.47 0.33 0.29 0.25 0.24 0.21 0.19 0.13 0.18 0.23 0.29 0.29 0.35 0.45 0.48 0.57 0.61 0.56 0.52 0.56 0.61 0.65 0.70
0.26 0.10 0.11 0.14 0.18 0.28 0.38 0.44 0.39 0.50 0.67 0.55 0.46 0.59 0.66 0.84 0.78 0.68 0.54 0.39 0.38 0.26 0.23 0.21 0.16 0.16 0.13 0.15 0.16 0.20 0.28 0.32 0.37 0.43 0.42 0.43 0.43 0.41 0.45 0.46 0.50 0.51 0.55 0.57
0.59 0.61 0.50 0.46 0.47 0.58 0.63 0.61 0.46 0.51 0.56 0.62 0.66 0.65 0.62 0.74 0.69 0.61 0.47 0.38 0.32 0.25 0.22 0.22 0.17 0.18 0.16 0.19 0.23 0.27 0.30 0.31 0.29 0.28 0.31 0.32 0.34 0.37 0.38 0.39 0.42 0.42 0.42 0.45
0.79 0.85 0.88 0.78 0.68 0.79 0.86 0.75 0.74 0.62 0.67 0.67 0.65 0.62 0.53 0.59 0.49 0.36 0.36 0.28 0.20 0.21 0.23 0.23 0.19 0.18 0.17 0.25 0.30 0.31 0.31 0.27 0.24 0.26 0.28 0.29 0.31 0.32 0.33 0.33 0.35 0.38 0.37 0.36
0.78 0.70 0.76 0.78 0.65 0.50 0.60 0.76 0.65 0.62 0.55 0.62 0.59 0.54 0.44 0.42 0.42 0.30 0.26 0.23 0.22 0.21 0.26 0.26 0.16 0.14 0.20 0.29 0.28 0.26 0.29 0.25 0.21 0.24 0.23 0.22 0.24 0.24 0.25 0.25 0.26 0.24 0.28 0.27
0.63 0.58 0.55 0.53 0.50 0.56 0.49 0.49 0.46 0.53 0.50 0.61 0.56 0.45 0.34 0.29 0.35 0.34 0.29 0.28 0.24 0.21 0.24 0.22 0.14 0.15 0.23 0.26 0.26 0.25 0.26 0.23 0.20 0.24 0.26 0.24 0.23 0.21 0.20 0.20 0.20 0.19 0.19 0.20
0.63 0.62 0.57 0.50 0.51 0.47 0.44 0.44 0.48 0.57 0.49 0.52 0.49 0.39 0.37 0.31 0.30 0.28 0.25 0.22 0.15 0.16 0.22 0.27 0.20 0.20 0.22 0.23 0.24 0.23 0.23 0.21 0.19 0.21 0.22 0.21 0.21 0.20 0.19 0.19 0.19 0.18 0.18 0.16
0.56 0.51 0.40 0.40 0.45 0.44 0.44 0.45 0.42 0.47 0.44 0.43 0.47 0.37 0.35 0.34 0.32 0.31 0.29 0.27 0.25 0.25 0.26 0.26 0.23 0.20 0.20 0.23 0.25 0.22 0.21 0.21 0.19 0.19 0.20 0.21 0.22 0.23 0.24 0.23 0.23 0.22 0.21 0.21

GFSNGP_prec_precacc_177.txt.gz
Total_Precipitation_Accumulation
0.07 0.02 0.05 0.13 0.15 0.09 0.09 0.16 0.36 0.18 0.21 0.32 0.33 0.44 0.62 0.39 0.45 0.31 0.67 0.81 0.61 0.64 0.59 0.58 0.65 0.68 0.76 0.66 0.65 0.72 0.68 0.69 0.59 0.72 1.12 1.31 1.61 1.60 1.34 1.07 0.97 0.94 0.85 0.80
0.29 0.03 0.01 0.03 0.06 0.08 0.04 0.04 0.05 0.07 0.10 0.04 0.04 0.10 0.09 0.10 0.11 0.21 0.37 0.28 0.29 0.22 0.23 0.27 0.33 0.39 0.52 0.61 0.53 0.49 0.50 0.46 0.60 0.75 0.67 0.74 0.71 0.63 0.67 0.82 0.87 0.76 0.59 0.54
0.53 0.06 0.14 0.42 0.09 0.04 0.16 0.24 0.19 0.16 0.12 0.02 0.04 0.08 0.15 0.13 0.10 0.12 0.12 0.07 0.15 0.21 0.17 0.27 0.29 0.31 0.44 0.57 0.56 0.41 0.35 0.35 0.38 0.39 0.39 0.33 0.26 0.28 0.33 0.38 0.44 0.58 0.70 0.56
0.74 0.37 0.83 0.30 0.04 0.04 0.20 0.14 0.07 0.10 0.06 0.04 0.04 0.17 0.14 0.07 0.05 0.08 0.06 0.07 0.06 0.09 0.06 0.12 0.26 0.44 0.51 0.54 0.60 0.56 0.37 0.26 0.18 0.15 0.14 0.17 0.27 0.34 0.35 0.33 0.26 0.25 0.36 0.75
0.98 0.68 0.35 0.10 0.09 0.13 0.18 0.32 0.21 0.17 0.11 0.06 0.05 0.19 0.31 0.11 0.08 0.09 0.06 0.05 0.01 0.01 0.01 0.02 0.10 0.37 0.75 0.87 0.66 0.62 0.46 0.34 0.20 0.15 0.16 0.26 0.40 0.47 0.39 0.35 0.42 0.35 0.34 0.39
0.96 0.83 0.40 0.22 0.16 0.07 0.17 0.57 0.71 0.40 0.34 0.30 0.19 0.37 0.44 0.16 0.11 0.07 0.03 0.00 0.00 0.00 0.00 0.02 0.08 0.23 0.39 0.74 0.85 0.60 0.54 0.41 0.39 0.30 0.28 0.36 0.35 0.28 0.28 0.38 0.39 0.52 0.61 0.43
1.06 1.40 0.67 0.18 0.07 0.10 0.55 1.16 0.87 0.80 1.00 0.85 0.90 1.03 0.63 0.37 0.15 0.04 0.00 0.00 0.00 0.00 0.00 0.00 0.05 0.18 0.47 0.69 1.06 1.04 0.70 0.62 0.48 0.38 0.38 0.32 0.27 0.27 0.33 0.38 0.45 0.43 0.43 0.51
1.28 1.56 0.95 0.23 0.40 0.87 0.97 0.56 0.74 1.25 1.47 1.25 1.08 0.79 0.45 0.14 0.06 0.02 0.00 0.00 0.00 0.00 0.00 0.01 0.03 0.06 0.20 0.53 1.15 1.59 1.27 0.84 0.78 0.64 0.39 0.31 0.26 0.25 0.31 0.40 0.45 0.45 0.41 0.36
1.01 0.84 0.51 0.36 0.61 0.80 0.69 0.75 0.86 0.76 0.79 0.55 0.44 0.20 0.07 0.04 0.01 0.00 0.00 0.00 0.00 0.01 0.02 0.02 0.01 0.02 0.08 0.16 0.35 1.17 1.83 1.81 1.36 0.89 0.75 0.69 0.66 0.61 0.53 0.49 0.47 0.51 0.53 0.53
1.12 0.66 0.37 0.54 0.41 0.54 0.80 0.73 0.46 0.43 0.42 0.38 0.26 0.16 0.11 0.04 0.03 0.01 0.01 0.01 0.02 0.03 0.02 0.01 0.01 0.02 0.05 0.07 0.16 0.42 0.92 1.50 1.87 1.89 1.14 0.99 1.14 1.14 1.29 1.28 1.02 0.99 1.07 1.09
1.43 1.51 0.96 0.61 0.58 0.60 0.64 0.61 0.60 0.34 0.24 0.27 0.36 0.31 0.27 0.23 0.09 0.03 0.05 0.06 0.05 0.07 0.06 0.03 0.04 0.04 0.06 0.13 0.19 0.26 0.57 0.98 1.28 1.96 1.93 1.11 1.00 1.22 1.19 1.48 1.60 1.35 1.21 1.26
1.31 1.34 1.61 1.16 1.30 1.02 0.86 0.49 0.31 0.17 0.23 0.17 0.09 0.10 0.15 0.20 0.30 0.31 0.23 0.19 0.18 0.14 0.09 0.10 0.11 0.13 0.14 0.16 0.24 0.31 0.51 0.91 1.21 1.48 2.05 2.05 1.46 1.66 2.00 2.12 2.07 2.17 2.22 1.99
0.50 0.62 0.95 1.25 0.88 0.46 0.47 0.49 0.28 0.11 0.08 0.02 0.02 0.05 0.15 0.32 0.42 0.44 0.41 0.35 0.31 0.34 0.32 0.20 0.15 0.18 0.21 0.21 0.24 0.33 0.46 0.59 0.94 1.34 1.74 1.95 2.05 1.83 1.91 2.07 1.99 1.95 1.95 1.79
0.13 0.23 0.36 0.34 0.35 0.22 0.20 0.27 0.21 0.17 0.12 0.07 0.07 0.06 0.11 0.31 0.84 1.23 1.15 0.81 0.58 0.45 0.45 0.52 0.55 0.68 0.76 0.70 0.67 0.71 0.87 1.15 1.20 1.36 1.78 2.09 2.21 2.16 2.05 1.82 1.66 1.88 1.93 1.91
0.02 0.08 0.17 0.11 0.08 0.10 0.07 0.08 0.06 0.09 0.15 0.16 0.09 0.11 0.24 0.42 0.60 0.87 1.36 1.48 1.41 1.32 1.37 1.28 1.25 1.66 1.73 1.61 1.57 1.58 1.42 1.45 1.50 1.65 1.68 1.75 1.86 1.88 1.78 1.73 1.70 1.73 1.66 1.47
0.02 0.02 0.03 0.05 0.06 0.08 0.06 0.08 0.10 0.08 0.03 0.02 0.09 0.21 0.18 0.31 0.39 0.48 0.75 1.00 1.15 1.51 1.82 1.85 1.88 1.92 1.64 1.49 1.25 1.23 1.22 1.08 0.92 0.95 1.17 1.32 1.32 1.38 1.52 1.55 1.57 1.56 1.54 1.61
0.02 0.03 0.05 0.06 0.09 0.09 0.08 0.05 0.03 0.03 0.03 0.05 0.08 0.10 0.09 0.16 0.30 0.62 0.95 1.05 1.18 1.33 1.37 1.26 1.28 1.05 0.84 0.81 0.72 0.69 0.72 0.71 0.65 0.65 0.70 0.78 0.95 1.08 1.17 1.18 1.22 1.22 1.31 1.38
0.02 0.03 0.07 0.12 0.07 0.01 0.01 0.01 0.03 0.05 0.08 0.12 0.24 0.38 0.43 0.50 0.74 1.09 1.41 1.37 0.94 0.84 0.91 0.87 0.70 0.53 0.47 0.50 0.44 0.41 0.42 0.43 0.49 0.58 0.60 0.63 0.71 0.76 0.75 0.77 0.84 0.88 0.97 0.97
0.10 0.10 0.06 0.03 0.03 0.03 0.03 0.05 0.09 0.15 0.23 0.30 0.41 0.68 0.87 0.94 0.91 0.87 0.87 0.82 0.84 0.70 0.76 0.50 0.38 0.29 0.26 0.29 0.25 0.31 0.34 0.38 0.39 0.40 0.47 0.50 0.52 0.63 0.69 0.66 0.66 0.72 0.74 0.78
0.04 0.04 0.06 0.05 0.06 0.08 0.12 0.20 0.26 0.36 0.47 0.44 0.49 0.60 0.60 0.67 0.59 0.60 0.58 0.54 0.50 0.47 0.33 0.29 0.25 0.24 0.21 0.19 0.13 0.18 0.23 0.29 0.29 0.35 0.45 0.48 0.57 0.61 0.56 0.52 0.56 0.61 0.65 0.70
0.27 0.11 0.11 0.14 0.18 0.28 0.38 0.44 0.39 0.50 0.67 0.55 0.46 0.59 0.66 0.84 0.78 0.68 0.54 0.39 0.38 0.26 0.23 0.21 0.16 0.16 0.13 0.15 0.16 0.20 0.28 0.32 0.37 0.43 0.42 0.43 0.43 0.41 0.45 0.46 0.50 0.51 0.55 0.57
0.59 0.61 0.50 0.46 0.47 0.58 0.63 0.61 0.46 0.51 0.56 0.62 0.66 0.65 0.62 0.74 0.69 0.61 0.47 0.38 0.32 0.25 0.22 0.22 0.17 0.18 0.16 0.19 0.23 0.27 0.30 0.31 0.29 0.28 0.31 0.32 0.34 0.37 0.38 0.39 0.42 0.42 0.43 0.45
0.79 0.85 0.88 0.78 0.68 0.79 0.86 0.75 0.74 0.62 0.67 0.67 0.65 0.62 0.53 0.59 0.49 0.36 0.36 0.28 0.20 0.21 0.23 0.23 0.19 0.18 0.17 0.25 0.30 0.31 0.31 0.27 0.24 0.26 0.28 0.29 0.31 0.32 0.33 0.33 0.35 0.38 0.37 0.36
0.78 0.70 0.76 0.78 0.65 0.50 0.60 0.76 0.65 0.62 0.55 0.62 0.59 0.54 0.44 0.42 0.42 0.30 0.26 0.23 0.22 0.21 0.26 0.26 0.16 0.14 0.20 0.29 0.28 0.26 0.29 0.25 0.21 0.24 0.24 0.23 0.24 0.24 0.25 0.25 0.26 0.24 0.28 0.27
0.63 0.58 0.55 0.53 0.50 0.56 0.49 0.49 0.46 0.53 0.50 0.61 0.56 0.45 0.34 0.29 0.35 0.34 0.29 0.28 0.24 0.21 0.24 0.22 0.14 0.15 0.23 0.26 0.26 0.25 0.26 0.23 0.20 0.24 0.26 0.24 0.23 0.21 0.20 0.20 0.20 0.19 0.19 0.20
0.63 0.62 0.57 0.50 0.51 0.47 0.44 0.44 0.48 0.57 0.49 0.52 0.49 0.39 0.37 0.31 0.30 0.28 0.25 0.22 0.15 0.16 0.22 0.27 0.20 0.20 0.22 0.23 0.24 0.23 0.23 0.21 0.19 0.21 0.22 0.21 0.21 0.20 0.19 0.19 0.19 0.18 0.18 0.16
0.56 0.51 0.40 0.40 0.45 0.44 0.44 0.45 0.42 0.47 0.44 0.43 0.47 0.37 0.35 0.34 0.32 0.31 0.29 0.27 0.25 0.25 0.26 0.27 0.23 0.20 0.20 0.23 0.26 0.24 0.22 0.21 0.19 0.19 0.20 0.21 0.22 0.23 0.24 0.23 0.23 0.22 0.21 0.21

GFSNGP_prec_precacc_180.txt.gz
Total_Precipitation_Accumulation
0.08 0.02 0.05 0.14 0.16 0.12 0.22 0.30 0.51 0.21 0.21 0.32 0.33 0.44 0.62 0.39 0.45 0.31 0.67 0.81 0.61 0.64 0.59 0.58 0.65 0.68 0.76 0.66 0.65 0.72 0.68 0.69 0.59 0.72 1.12 1.31 1.61 1.60 1.34 1.07 0.97 0.94 0.85 0.80
0.34 0.03 0.01 0.04 0.08 0.09 0.06 0.06 0.11 0.13 0.13 0.04 0.04 0.10 0.09 0.10 0.11 0.21 0.37 0.28 0.29 0.22 0.23 0.27 0.33 0.39 0.52 0.61 0.53 0.49 0.50 0.46 0.60 0.75 0.67 0.74 0.71 0.63 0.67 0.82 0.87 0.76 0.59 0.54
0.56 0.06 0.15 0.43 0.10 0.05 0.16 0.24 0.19 0.18 0.13 0.02 0.04 0.08 0.15 0.13 0.11 0.12 0.12 0.07 0.15 0.21 0.17 0.27 0.29 0.31 0.44 0.57 0.56 0.41 0.35 0.35 0.38 0.39 0.39 0.33 0.26 0.28 0.33 0.38 0.44 0.58 0.70 0.56
0.78 0.38 0.87 0.31 0.04 0.04 0.20 0.14 0.07 0.11 0.06 0.04 0.04 0.17 0.14 0.07 0.06 0.08 0.07 0.07 0.06 0.09 0.06 0.12 0.26 0.44 0.51 0.55 0.60 0.56 0.37 0.26 0.18 0.15 0.14 0.17 0.27 0.34 0.35 0.33 0.26 0.25 0.36 0.75
1.05 0.72 0.39 0.11 0.09 0.13 0.19 0.33 0.21 0.17 0.12 0.06 0.05 0.20 0.31 0.11 0.08 0.09 0.07 0.05 0.01 0.01 0.01 0.02 0.10 0.37 0.75 0.89 0.70 0.65 0.47 0.34 0.20 0.15 0.16 0.26 0.40 0.47 0.39 0.35 0.42 0.35 0.34 0.39
1.00 0.87 0.42 0.22 0.16 0.07 0.17 0.64 0.73 0.40 0.34 0.30 0.19 0.38 0.44 0.16 0.11 0.07 0.03 0.01 0.00 0.00 0.00 0.02 0.09 0.25 0.45 0.82 0.91 0.62 0.55 0.41 0.39 0.30 0.28 0.36 0.35 0.28 0.28 0.38 0.39 0.52 0.61 0.43
1.23 1.55 0.77 0.20 0.07 0.10 0.57 1.17 0.87 0.80 1.00 0.85 0.90 1.03 0.63 0.37 0.15 0.04 0.00 0.00 0.00 0.00 0.00 0.01 0.07 0.23 0.54 0.73 1.08 1.05 0.71 0.62 0.48 0.38 0.38 0.32 0.27 0.27 0.33 0.38 0.45 0.43 0.43 0.51
1.32 1.64 1.01 0.24 0.42 0.89 0.98 0.58 0.76 1.26 1.50 1.26 1.09 0.79 0.45 0.14 0.06 0.02 0.00 0.00 0.00 0.00 0.01 0.01 0.03 0.07 0.22 0.54 1.16 1.59 1.27 0.84 0.78 0.64 0.39 0.31 0.26 0.25 0.31 0.40 0.45 0.45 0.41 0.36
1.02 0.84 0.51 0.36 0.62 0.81 0.69 0.75 0.87 0.77 0.80 0.57 0.44 0.20 0.07 0.04 0.01 0.00 0.00 0.00 0.00 0.01 0.02 0.02 0.01 0.02 0.08 0.17 0.36 1.17 1.83 1.81 1.36 0.89 0.75 0.69 0.66 0.61 0.53 0.49 0.47 0.51 0.53 0.53
1.12 0.66 0.37 0.54 0.41 0.54 0.80 0.73 0.46 0.43 0.42 0.38 0.26 0.16 0.11 0.04 0.03 0.01 0.01 0.01 0.02 0.03 0.03 0.02 0.01 0.03 0.05 0.08 0.16 0.42 0.92 1.50 1.87 1.89 1.14 0.99 1.14 1.14 1.29 1.28 1.02 0.99 1.07 1.09
1.43 1.51 0.96 0.62 0.58 0.60 0.64 0.61 0.61 0.34 0.25 0.27 0.36 0.31 0.27 0.23 0.09 0.03 0.05 0.06 0.05 0.07 0.06 0.04 0.04 0.04 0.07 0.13 0.19 0.26 0.57 0.98 1.28 1.96 1.93 1.11 1.00 1.22 1.19 1.48 1.60 1.35 1.21 1.26
1.31 1.34 1.61 1.16 1.30 1.02 0.87 0.49 0.31 0.17 0.23 0.17 0.09 0.10 0.15 0.20 0.30 0.31 0.23 0.19 0.18 0.14 0.09 0.10 0.11 0.13 0.14 0.16 0.24 0.31 0.51 0.91 1.21 1.48 2.05 2.05 1.46 1.66 2.00 2.12 2.07 2.17 2.22 1.99
0.50 0.62 0.95 1.25 0.88 0.46 0.48 0.51 0.29 0.11 0.08 0.02 0.02 0.05 0.15 0.32 0.42 0.44 0.41 0.35 0.31 0.34 0.32 0.20 0.15 0.18 0.21 0.21 0.24 0.33 0.46 0.59 0.94 1.34 1.74 1.95 2.05 1.83 1.91 2.07 1.99 1.96 1.95 1.79
0.13 0.23 0.36 0.34 0.35 0.22 0.21 0.29 0.21 0.17 0.12 0.07 0.07 0.06 0.11 0.31 0.84 1.23 1.15 0.81 0.58 0.45 0.45 0.52 0.55 0.68 0.76 0.70 0.67 0.71 0.87 1.15 1.20 1.36 1.78 2.09 2.21 2.16 2.05 1.82 1.66 1.88 1.93 1.91
0.02 0.08 0.17 0.11 0.08 0.11 0.08 0.09 0.06 0.09 0.15 0.16 0.09 0.12 0.25 0.43 0.61 0.87 1.36 1.48 1.41 1.32 1.37 1.28 1.25 1.66 1.73 1.61 1.57 1.58 1.42 1.45 1.50 1.65 1.68 1.75 1.86 1.88 1.78 1.73 1.70 1.73 1.66 1.47
0.02 0.02 0.03 0.05 0.07 0.09 0.06 0.08 0.10 0.08 0.03 0.03 0.10 0.21 0.18 0.31 0.40 0.48 0.75 1.00 1.15 1.51 1.82 1.85 1.88 1.92 1.64 1.49 1.25 1.23 1.22 1.08 0.92 0.95 1.17 1.32 1.32 1.38 1.52 1.55 1.57 1.56 1.54 1.61
0.02 0.03 0.05 0.06 0.09 0.09 0.08 0.05 0.03 0.03 0.03 0.05 0.08 0.10 0.09 0.16 0.30 0.62 0.95 1.05 1.18 1.33 1.37 1.26 1.28 1.05 0.84 0.81 0.72 0.69 0.72 0.71 0.65 0.65 0.70 0.78 0.95 1.08 1.17 1.18 1.22 1.22 1.31 1.38
0.02 0.03 0.07 0.13 0.07 0.01 0.01 0.01 0.03 0.05 0.08 0.12 0.24 0.38 0.43 0.50 0.74 1.09 1.41 1.37 0.94 0.84 0.91 0.87 0.70 0.53 0.47 0.50 0.44 0.41 0.42 0.43 0.49 0.58 0.60 0.63 0.71 0.76 0.75 0.77 0.84 0.88 0.97 0.97
0.10 0.10 0.06 0.03 0.04 0.03 0.04 0.06 0.09 0.15 0.23 0.30 0.41 0.68 0.87 0.94 0.91 0.87 0.87 0.82 0.84 0.70 0.76 0.50 0.38 0.29 0.26 0.29 0.25 0.31 0.34 0.38 0.39 0.40 0.47 0.50 0.52 0.63 0.69 0.66 0.66 0.72 0.74 0.78
0.04 0.04 0.06 0.09 0.11 0.09 0.12 0.20 0.26 0.36 0.47 0.44 0.49 0.60 0.60 0.67 0.59 0.60 0.58 0.54 0.50 0.47 0.33 0.29 0.25 0.24 0.21 0.19 0.13 0.18 0.23 0.29 0.29 0.35 0.45 0.48 0.57 0.61 0.56 0.52 0.56 0.61 0.65 0.70
0.27 0.11 0.12 0.16 0.21 0.28 0.38 0.44 0.39 0.50 0.67 0.55 0.46 0.59 0.66 0.84 0.78 0.68 0.54 0.39 0.38 0.26 0.23 0.21 0.16 0.16 0.13 0.15 0.16 0.20 0.28 0.32 0.37 0.43 0.42 0.43 0.43 0.41 0.45 0.46 0.50 0.51 0.55 0.58
0.59 0.62 0.50 0.46 0.47 0.58 0.63 0.61 0.46 0.51 0.56 0.62 0.66 0.65 0.62 0.74 0.69 0.61 0.47 0.38 0.32 0.25 0.22 0.22 0.17 0.18 0.16 0.19 0.23 0.27 0.30 0.31 0.29 0.28 0.31 0.32 0.34 0.37 0.38 0.39 0.43 0.42 0.43 0.46
0.79 0.85 0.88 0.78 0.68 0.79 0.86 0.75 0.74 0.62 0.67 0.67 0.65 0.62 0.53 0.59 0.49 0.36 0.36 0.28 0.20 0.21 0.23 0.23 0.19 0.18 0.17 0.25 0.30 0.31 0.31 0.27 0.24 0.26 0.28 0.29 0.31 0.32 0.33 0.33 0.35 0.39 0.37 0.36
0.78 0.70 0.76 0.78 0.65 0.50 0.60 0.76 0.65 0.62 0.55 0.62 0.59 0.54 0.44 0.42 0.42 0.30 0.26 0.23 0.22 0.21 0.26 0.26 0.16 0.14 0.20 0.29 0.28 0.26 0.29 0.25 0.21 0.24 0.24 0.23 0.25 0.24 0.25 0.25 0.26 0.25 0.28 0.27
0.63 0.58 0.55 0.53 0.50 0.56 0.49 0.49 0.46 0.53 0.50 0.61 0.56 0.45 0.34 0.29 0.35 0.34 0.29 0.28 0.24 0.21 0.24 0.22 0.14 0.15 0.23 0.26 0.26 0.25 0.26 0.23 0.20 0.25 0.26 0.25 0.23 0.21 0.20 0.20 0.21 0.20 0.19 0.20
0.63 0.62 0.57 0.50 0.51 0.47 0.44 0.44 0.48 0.57 0.49 0.52 0.49 0.39 0.37 0.31 0.30 0.28 0.25 0.22 0.15 0.16 0.22 0.27 0.20 0.20 0.22 0.23 0.24 0.23 0.23 0.22 0.20 0.22 0.23 0.21 0.21 0.20 0.19 0.19 0.19 0.18 0.18 0.16
0.56 0.51 0.40 0.40 0.45 0.44 0.44 0.45 0.42 0.47 0.44 0.43 0.47 0.37 0.35 0.34 0.32 0.31 0.29 0.27 0.25 0.25 0.27 0.27 0.23 0.20 0.20 0.23 0.26 0.24 0.22 0.22 0.19 0.19 0.20 0.21 0.22 0.23 0.24 0.23 0.23 0.22 0.21 0.21

GFSNGP_prec_precacc_183.txt.gz
Total_Precipitation_Accumulation
0.08 0.03 0.06 0.15 0.16 0.13 0.31 0.43 0.66 0.25 0.21 0.32 0.33 0.44 0.62 0.39 0.45 0.31 0.67 0.81 0.61 0.64 0.59 0.58 0.65 0.68 0.76 0.66 0.65 0.72 0.68 0.69 0.59 0.72 1.12 1.31 1.61 1.60 1.34 1.07 0.97 0.94 0.85 0.80
0.34 0.03 0.02 0.07 0.10 0.09 0.06 0.07 0.13 0.15 0.16 0.04 0.04 0.10 0.09 0.10 0.11 0.21 0.37 0.28 0.29 0.22 0.23 0.27 0.33 0.39 0.52 0.61 0.53 0.49 0.50 0.46 0.60 0.75 0.67 0.74 0.71 0.63 0.67 0.82 0.87 0.76 0.59 0.54
0.56 0.06 0.15 0.44 0.10 0.05 0.16 0.24 0.19 0.19 0.15 0.02 0.04 0.08 0.15 0.13 0.11 0.12 0.12 0.07 0.15 0.21 0.17 0.27 0.29 0.31 0.44 0.57 0.56 0.41 0.35 0.35 0.38 0.39 0.39 0.33 0.26 0.28 0.33 0.38 0.44 0.58 0.70 0.56
0.78 0.38 0.89 0.31 0.04 0.04 0.20 0.14 0.07 0.11 0.06 0.04 0.04 0.17 0.14 0.07 0.06 0.08 0.07 0.07 0.06 0.09 0.06 0.12 0.26 0.44 0.51 0.55 0.60 0.57 0.38 0.27 0.20 0.17 0.15 0.17 0.27 0.34 0.35 0.33 0.26 0.25 0.36 0.75
1.07 0.73 0.40 0.12 0.09 0.13 0.19 0.33 0.21 0.18 0.12 0.06 0.05 0.20 0.31 0.11 0.08 0.09 0.07 0.05 0.01 0.01 0.01 0.02 0.10 0.37 0.75 0.89 0.71 0.69 0.56 0.47 0.31 0.18 0.16 0.26 0.40 0.47 0.39 0.35 0.42 0.35 0.34 0.39
1.08 0.95 0.46 0.23 0.16 0.07 0.18 0.65 0.73 0.41 0.36 0.30 0.19 0.38 0.44 0.16 0.11 0.07 0.03 0.01 0.00 0.01 0.00 0.02 0.09 0.26 0.47 0.86 1.00 0.82 0.79 0.64 0.49 0.31 0.28 0.36 0.35 0.28 0.28 0.38 0.39 0.52 0.61 0.43
1.29 1.67 0.89 0.24 0.08 0.11 0.59 1.18 0.88 0.82 1.02 0.86 0.90 1.03 0.63 0.37 0.15 0.04 0.00 0.00 0.01 0.02 0.02 0.02 0.07 0.23 0.56 0.82 1.27 1.27 0.89 0.72 0.50 0.38 0.38 0.32 0.27 0.27 0.33 0.38 0.45 0.43 0.43 0.51
1.32 1.68 1.09 0.27 0.43 0.92 1.00 0.59 0.77 1.27 1.50 1.27 1.10 0.80 0.45 0.14 0.06 0.02 0.00 0.00 0.00 0.00 0.01 0.02 0.03 0.08 0.28 0.69 1.35 1.76 1.36 0.87 0.78 0.65 0.39 0.31 0.26 0.25 0.31 0.40 0.45 0.45 0.41 0.36
1.03 0.85 0.51 0.37 0.63 0.81 0.70 0.76 0.87 0.77 0.80 0.57 0.44 0.21 0.07 0.04 0.01 0.00 0.00 0.00 0.01 0.01 0.02 0.02 0.01 0.03 0.09 0.20 0.43 1.24 1.85 1.81 1.36 0.89 0.75 0.69 0.66 0.61 0.53 0.49 0.47 0.51 0.53 0.53
1.14 0.66 0.37 0.54 0.41 0.54 0.80 0.73 0.46 0.43 0.42 0.38 0.26 0.16 0.11 0.04 0.03 0.01 0.01 0.01 0.02 0.03 0.03 0.02 0.02 0.07 0.12 0.18 0.24 0.44 0.92 1.50 1.87 1.89 1.14 0.99 1.14 1.14 1.29 1.28 1.02 0.99 1.07 1.09
1.43 1.51 0.96 0.62 0.58 0.60 0.64 0.61 0.61 0.34 0.25 0.28 0.36 0.31 0.27 0.23 0.09 0.03 0.05 0.06 0.05 0.07 0.06 0.05 0.08 0.10 0.13 0.17 0.20 0.26 0.57 0.98 1.28 1.96 1.93 1.11 1.00 1.22 1.19 1.48 1.60 1.35 1.21 1.26
1.31 1.34 1.61 1.16 1.30 1.02 0.87 0.49 0.31 0.17 0.23 0.18 0.10 0.10 0.15 0.20 0.30 0.31 0.23 0.19 0.18 0.14 0.09 0.11 0.12 0.13 0.15 0.16 0.24 0.31 0.51 0.91 1.21 1.48 2.05 2.05 1.46 1.66 2.00 2.12 2.07 2.17 2.22 1.99
0.50 0.62 0.95 1.25 0.88 0.46 0.48 0.51 0.29 0.11 0.08 0.02 0.02 0.05 0.15 0.32 0.42 0.44 0.41 0.35 0.32 0.35 0.33 0.20 0.15 0.18 0.21 0.21 0.24 0.33 0.46 0.59 0.94 1.34 1.74 1.95 2.05 1.83 1.91 2.07 1.99 1.96 1.95 1.80
0.13 0.23 0.36 0.34 0.35 0.22 0.21 0.30 0.22 0.18 0.12 0.08 0.07 0.06 0.11 0.31 0.84 1.23 1.16 0.82 0.60 0.46 0.45 0.52 0.55 0.68 0.76 0.70 0.67 0.71 0.87 1.15 1.20 1.36 1.78 2.09 2.21 2.16 2.05 1.82 1.66 1.88 1.93 1.91
0.02 0.08 0.17 0.11 0.08 0.11 0.09 0.09 0.06 0.09 0.15 0.16 0.09 0.12 0.25 0.43 0.62 0.89 1.39 1.51 1.41 1.32 1.37 1.28 1.25 1.66 1.73 1.61 1.57 1.58 1.42 1.45 1.50 1.65 1.68 1.75 1.86 1.88 1.78 1.73 1.70 1.73 1.66 1.47
0.02 0.02 0.03 0.05 0.07 0.09 0.08 0.09 0.10 0.08 0.03 0.03 0.10 0.21 0.19 0.33 0.43 0.52 0.77 1.01 1.15 1.51 1.82 1.85 1.88 1.92 1.64 1.49 1.25 1.23 1.22 1.08 0.92 0.95 1.17 1.32 1.32 1.38 1.52 1.55 1.57 1.56 1.54 1.61
0.02 0.03 0.05 0.06 0.09 0.09 0.09 0.05 0.03 0.03 0.03 0.05 0.08 0.13 0.13 0.19 0.33 0.63 0.95 1.05 1.18 1.33 1.37 1.26 1.28 1.05 0.84 0.81 0.72 0.69 0.72 0.71 0.65 0.65 0.70 0.78 0.95 1.08 1.17 1.18 1.22 1.22 1.31 1.38
0.07 0.04 0.07 0.13 0.07 0.01 0.01 0.01 0.03 0.05 0.08 0.12 0.28 0.41 0.45 0.51 0.74 1.09 1.41 1.37 0.94 0.84 0.91 0.87 0.70 0.53 0.47 0.50 0.44 0.41 0.42 0.43 0.49 0.58 0.60 0.63 0.71 0.76 0.75 0.77 0.84 0.88 0.97 0.97
0.13 0.11 0.06 0.03 0.04 0.03 0.04 0.06 0.09 0.16 0.25 0.31 0.41 0.68 0.87 0.94 0.91 0.87 0.87 0.82 0.84 0.70 0.76 0.50 0.38 0.29 0.26 0.29 0.25 0.31 0.34 0.38 0.39 0.40 0.47 0.50 0.52 0.63 0.69 0.66 0.66 0.72 0.74 0.78
0.04 0.04 0.06 0.09 0.11 0.11 0.13 0.20 0.27 0.37 0.48 0.44 0.49 0.60 0.60 0.67 0.59 0.60 0.58 0.54 0.50 0.47 0.33 0.29 0.25 0.24 0.21 0.19 0.13 0.18 0.23 0.29 0.29 0.35 0.45 0.48 0.57 0.61 0.56 0.52 0.56 0.61 0.65 0.70
0.27 0.11 0.12 0.16 0.24 0.35 0.40 0.44 0.39 0.50 0.67 0.55 0.46 0.59 0.66 0.84 0.78 0.68 0.54 0.39 0.38 0.26 0.23 0.21 0.16 0.16 0.13 0.15 0.16 0.20 0.28 0.32 0.37 0.43 0.42 0.43 0.43 0.41 0.45 0.46 0.50 0.51 0.55 0.58
0.59 0.62 0.50 0.47 0.49 0.61 0.63 0.61 0.46 0.51 0.56 0.62 0.66 0.65 0.62 0.74 0.69 0.61 0.47 0.38 0.32 0.25 0.22 0.22 0.17 0.18 0.16 0.19 0.23 0.27 0.30 0.31 0.29 0.28 0.31 0.32 0.34 0.37 0.38 0.39 0.43 0.42 0.43 0.46
0.85 0.88 0.91 0.78 0.68 0.79 0.86 0.75 0.74 0.62 0.67 0.67 0.65 0.62 0.53 0.59 0.49 0.36 0.36 0.28 0.20 0.21 0.23 0.23 0.19 0.18 0.17 0.25 0.30 0.31 0.31 0.27 0.24 0.26 0.28 0.29 0.31 0.32 0.33 0.33 0.35 0.39 0.37 0.36
0.78 0.70 0.76 0.78 0.65 0.50 0.60 0.76 0.65 0.62 0.55 0.62 0.59 0.54 0.44 0.42 0.42 0.30 0.26 0.23 0.22 0.21 0.26 0.26 0.16 0.14 0.20 0.29 0.28 0.26 0.29 0.25 0.21 0.24 0.24 0.24 0.25 0.25 0.25 0.26 0.26 0.25 0.28 0.27
0.63 0.58 0.55 0.53 0.50 0.56 0.49 0.49 0.46 0.53 0.50 0.61 0.56 0.45 0.34 0.29 0.35 0.34 0.29 0.28 0.24 0.21 0.24 0.22 0.14 0.15 0.23 0.26 0.26 0.25 0.26 0.23 0.20 0.25 0.27 0.25 0.23 0.22 0.21 0.20 0.21 0.20 0.19 0.20
0.63 0.62 0.57 0.50 0.51 0.47 0.44 0.44 0.48 0.57 0.49 0.52 0.49 0.39 0.37 0.31 0.30 0.28 0.25 0.22 0.15 0.16 0.22 0.27 0.20 0.20 0.22 0.23 0.24 0.23 0.23 0.22 0.20 0.22 0.23 0.21 0.21 0.20 0.19 0.19 0.19 0.18 0.18 0.16
0.56 0.51 0.40 0.40 0.45 0.44 0.44 0.45 0.42 0.47 0.44 0.43 0.47 0.37 0.35 0.34 0.32 0.31 0.29 0.27 0.25 0.25 0.27 0.27 0.23 0.20 0.20 0.23 0.26 0.24 0.22 0.22 0.20 0.19 0.21 0.21 0.22 0.24 0.24 0.23 0.23 0.22 0.21 0.21